568 Mauna Kea. Observers S. S. Sheppard, D. C. Jewitt, Y. R. Fernandez,
G. Magnier, S. Dahm, A. Evans. Measurer S. S. Sheppard. 2.2-m University
of Hawaii reflector + CCD.
Orbital elements:
S/2000 J 2
Epoch 2001 Apr. 1.0 TT = JDT 2452000.5 Marsden
M 94.32219 (2000.0) P Q
n 0.46995817 Peri. 230.49170 -0.96537586 +0.21000144
a 0.1613366 Node 39.08737 +0.23993457 +0.94762157
e 0.3177403 Incl. 165.79188 -0.10237599 +0.24065069
P 2.10 H 15.3 P/d 766.03
Residuals in seconds of arc
K00BN 568 0.1+ 0.3- K00C1 568 0.0 0.1+ K00C7 568 0.0 0.1-
K00BN 568 0.1- 0.2+ K00C1 568 0.1- 0.2+ K00C7 568 0.0 0.0
K00BN 568 0.2- 0.0 K00C3 568 0.5- 0.2- K00CF 568 0.2+ 0.1+
K00BP 568 0.5- 0.0 K00C3 568 0.3- 0.1- K00CF 568 0.1+ 0.1+
K00BP 568 0.3- 0.2- K00C5 568 0.1- 0.0 K00CG 568 0.2+ 0.1+
K00BP 568 0.2+ 0.1+ K00C5 568 0.3- 0.0 K00CG 568 0.1+ 0.1+
K00BP 568 0.1+ 0.2+ K00C5 568 0.1- 0.1- K00CT 568 0.1- 0.1+
K00BR 568 0.2+ 0.1+ K00C5 568 0.0 0.3- K00CT 568 0.1- 0.2+
K00BR 568 0.4+ 0.2- K00C6 568 0.1- 0.0 K0111 568 0.0 0.3-
K00BR 568 0.4+ 0.2- K00C6 568 0.1+ 0.1- K0111 568 0.1+ 0.1-
K00BT 568 0.4+ 0.4+ K00C6 568 0.1+ 0.2-
K00BT 568 0.4+ 0.2+ K00C7 568 0.1- 0.1-
S/2000 J 3
Epoch 2001 Apr. 1.0 TT = JDT 2452000.5 Marsden
M 98.59824 (2000.0) P Q
n 0.59414386 Peri. 84.21828 -0.85893078 -0.10433131
a 0.1379890 Node 270.98971 -0.30449497 +0.89120434
e 0.2686209 Incl. 149.90562 +0.41172894 +0.44144059
P 1.66 H 15.3 P/d 605.91
Residuals in seconds of arc
K00BN 568 0.0 0.0 K00BT 568 0.4+ 0.0 K00C5 568 0.5- 0.5-
K00BN 568 0.1+ 0.0 K00BT 568 0.1+ 0.2- K00CG 568 0.1+ 0.2+
K00BN 568 0.1+ 0.1- K00C1 568 0.3+ 0.2+ K00CG 568 0.1- 0.1+
K00BP 568 0.1- 0.0 K00C1 568 0.1+ 0.3+ K00CG 568 0.1+ 0.3+
K00BP 568 0.0 0.1+ K00C3 568 0.0 0.1+ K00CH 568 0.2+ 0.5+
K00BP 568 0.1- 0.1+ K00C3 568 0.3+ 0.1- K00CH 568 0.1+ 0.5+
K00BP 568 0.1+ 0.1- K00C5 568 0.3- 0.3- K00CR 568 0.0 0.1-
K00BR 568 0.0 0.3+ K00C5 568 0.4- 0.3- K00CR 568 0.1+ 0.2-
K00BR 568 0.0 0.0 K00C5 568 0.3- 0.3- K00CV 568 0.1- 0.1-
K00BR 568 0.0 0.1+ K00C5 568 0.0 0.4- K00CV 568 0.0 0.3-
S/2000 J 4
Epoch 2001 Apr. 1.0 TT = JDT 2452000.5 Marsden
M 152.06540 (2000.0) P Q
n 0.54492937 Peri. 354.28364 +0.83807377 -0.50628256
a 0.1461769 Node 321.58017 -0.48668678 -0.86215670
e 0.3464728 Incl. 160.90878 -0.24651235 -0.01907354
P 1.81 H 16.1 P/d 660.64
Residuals in seconds of arc
K00BN 568 0.2+ 0.0 K00BT 568 0.3- 0.1+ K00CG 568 0.1+ 0.1+
K00BN 568 0.4+ 0.0 K00C1 568 0.1- 0.1+ K00CG 568 0.2+ 0.2-
K00BN 568 0.2- 0.3- K00C1 568 0.2+ 0.1+ K00CH 568 0.2+ 0.3-
K00BQ 568 0.2- 0.1+ K00C3 568 0.2+ 0.2+ K00CH 568 0.2+ 0.1-
K00BQ 568 0.1- 0.0 K00C3 568 0.1- 0.3+ K00CR 568 0.2- 0.2+
K00BQ 568 0.1- 0.0 K00C5 568 0.1- 0.2- K00CR 568 0.1+ 0.0
K00BQ 568 0.2+ 0.0 K00C5 568 0.0 0.2- K00CV 568 0.1- 0.1+
K00BT 568 0.0 0.3+ K00C5 568 0.1- 0.1- K00CV 568 0.0 0.1+
K00BT 568 0.0 0.1+ K00C5 568 0.3- 0.2-
S/2000 J 5
Epoch 2001 Apr. 1.0 TT = JDT 2452000.5 Marsden
M 155.84402 (2000.0) P Q
n 0.58247233 Peri. 106.36579 +0.26117259 -0.91673526
a 0.1398263 Node 36.29295 -0.95795745 -0.28468286
e 0.2002700 Incl. 149.28845 +0.11877035 -0.28027154
P 1.69 H 15.1 P/d 618.06
Residuals in seconds of arc
K00BN 568 0.3+ 0.3+ K00BT 568 0.3+ 0.4- K00C5 568 0.0 0.1+
K00BN 568 0.3- 0.2+ K00BT 568 0.2+ 0.2- K00CG 568 0.4- 0.1+
K00BN 568 0.6- 0.5+ K00C1 568 0.3+ 0.2- K00CG 568 0.4- 0.1-
K00BP 568 0.1+ 0.0 K00C1 568 0.4+ 0.2- K00CG 568 0.1+ 0.1+
K00BP 568 0.1- 0.1+ K00C3 568 0.1+ 0.2- K00CH 568 0.2- 0.1-
K00BP 568 0.4- 0.1+ K00C3 568 0.1+ 0.2- K00CH 568 0.3- 0.2-
K00BP 568 0.1- 0.0 K00C5 568 0.0 0.1+ K00CT 568 0.3+ 0.1+
K00BR 568 0.0 0.3- K00C5 568 0.1- 0.2+ K00CT 568 0.2+ 0.5+
K00BR 568 0.4+ 0.2- K00C5 568 0.0 0.3+ K0111 568 0.0 0.2-
K00BR 568 0.0 0.2- K00C5 568 0.2- 0.1+ K0111 568 0.0 0.1-
S/2000 J 6
Epoch 2001 Apr. 1.0 TT = JDT 2452000.5 Marsden
M 343.42979 (2000.0) P Q
n 0.51169376 Peri. 139.97510 +0.98385059 +0.09964718
a 0.1524400 Node 144.83367 -0.00468640 -0.81607876
e 0.2809114 Incl. 165.03895 +0.17893030 -0.56928542
P 1.93 H 15.9 P/d 703.55
Residuals in seconds of arc
K00BN 568 0.4- 0.1+ K00BR 568 0.2+ 0.0 K00C3 568 0.1- 0.1-
K00BN 568 0.4- 0.2+ K00BR 568 0.1+ 0.0 K00C3 568 0.3- 0.2+
K00BN 568 0.4- 0.1+ K00BR 568 0.3+ 0.0 K00C3 568 0.2- 0.0
K00BP 568 0.1+ 0.4+ K00BS 568 0.2+ 0.3- K00C5 568 0.4- 0.1+
K00BP 568 0.3+ 0.1+ K00BS 568 0.2+ 0.3- K00C5 568 0.4- 0.1-
K00BP 568 0.0 0.3+ K00BS 568 0.1+ 0.2- K00C5 568 0.1- 0.2+
K00BP 568 0.0 0.1+ K00BS 568 0.4+ 0.2- K00CG 568 0.2- 0.2+
K00BP 568 0.4- 0.6+ K00BS 568 0.2+ 0.4- K00CG 568 0.1+ 0.4+
K00BP 568 0.3- 0.1+ K00BT 568 0.5+ 0.4- K00CH 568 0.0 0.2+
K00BP 568 0.0 0.3+ K00BT 568 0.1- 0.2- K00CH 568 0.2- 0.3+
K00BQ 568 0.0 0.0 K00BT 568 0.3+ 0.4- K00CR 568 0.3+ 0.1+
K00BQ 568 0.1- 0.0 K00BT 568 0.1+ 0.4- K00CR 568 0.1- 0.6-
K00BQ 568 0.1+ 0.0 K00C1 568 0.3+ 0.4-
K00BQ 568 0.3+ 0.1+ K00C1 568 0.3+ 0.2-
Ephemerides:
S/2000 J 2 q = 0.1101
Date TT R. A. (2000) Decl. Delta r_J dR.A. ("/m) dDecl. ("/')
2001 01 01 04 03.74 +19 38.5 4.375 0.145 2281+/2.69+ 584-/ 9.7-
2001 01 11 04 00.35 +19 33.5 4.495 0.148 1733+/2.04+ 566-/ 9.4-
2001 01 21 03 58.31 +19 32.2 4.634 0.152 1163+/1.37+ 556-/ 9.3-
2001 01 31 03 57.68 +19 35.0 4.786 0.155 578+/0.68+ 552-/ 9.2-
2001 02 10 03 58.45 +19 41.7 4.946 0.159 14-/0.02- 552-/ 9.2-
2001 02 20 04 00.55 +19 52.1 5.110 0.162 607-/0.72- 552-/ 9.2-
2001 03 02 04 03.89 +20 05.6 5.272 0.165 1195-/1.41- 549-/ 9.1-
2001 03 12 04 08.35 +20 21.7 5.430 0.169 1772-/2.10- 539-/ 9.0-
2001 03 22 04 13.82 +20 39.5 5.578 0.172 2332-/2.77- 518-/ 8.6-
2001 04 01 04 20.17 +20 58.6 5.716 0.175 2872-/3.42- 484-/ 8.1-
2001 04 11 04 27.28 +21 18.1 5.838 0.177 3388-/4.04- 435-/ 7.2-
2001 04 21 04 35.05 +21 37.6 5.945 0.180 3875-/4.63- 368-/ 6.1-
S/2000 J 3 q = 0.1009
Date TT R. A. (2000) Decl. Delta r_J dR.A. ("/m) dDecl. ("/')
2001 01 01 04 05.69 +20 21.3 4.317 0.120 3919+/4.64+ 1981+/ 33.0+
2001 01 11 04 02.61 +20 09.4 4.442 0.123 3629+/4.30+ 1588+/ 26.5+
2001 01 21 04 00.82 +20 01.1 4.586 0.127 3281+/3.88+ 1177+/ 19.6+
2001 01 31 04 00.40 +19 56.9 4.743 0.130 2882+/3.41+ 761+/ 12.7+
2001 02 10 04 01.35 +19 56.8 4.908 0.133 2440+/2.88+ 349+/ 5.8+
2001 02 20 04 03.58 +20 00.5 5.077 0.137 1963+/2.32+ 49-/ 0.8-
2001 03 02 04 07.03 +20 07.7 5.245 0.140 1459+/1.73+ 427-/ 7.1-
2001 03 12 04 11.56 +20 17.6 5.407 0.143 937+/1.11+ 781-/ 13.0-
2001 03 22 04 17.06 +20 29.7 5.561 0.145 403+/0.48+ 1107-/ 18.5-
2001 04 01 04 23.43 +20 43.3 5.703 0.148 135-/0.16- 1403-/ 23.4-
2001 04 11 04 30.53 +20 57.6 5.831 0.150 671-/0.80- 1667-/ 27.8-
2001 04 21 04 38.26 +21 12.1 5.942 0.152 1198-/1.43- 1898-/ 31.6-
S/2000 J 4 q = 0.0955
Date TT R. A. (2000) Decl. Delta r_J dR.A. ("/m) dDecl. ("/')
2001 01 01 04 08.15 +20 42.4 4.144 0.168 5979+/7.10+ 3251+/ 54.2+
2001 01 11 04 05.70 +20 36.2 4.262 0.172 6226+/7.39+ 3201+/ 53.3+
2001 01 21 04 04.57 +20 33.4 4.401 0.175 6432+/7.63+ 3117+/ 52.0+
2001 01 31 04 04.83 +20 34.3 4.556 0.179 6601+/7.83+ 3005+/ 50.1+
2001 02 10 04 06.46 +20 38.7 4.721 0.182 6736+/8.00+ 2868+/ 47.8+
2001 02 20 04 09.39 +20 46.5 4.893 0.185 6838+/8.13+ 2709+/ 45.2+
2001 03 02 04 13.52 +20 57.0 5.066 0.187 6906+/8.22+ 2533+/ 42.2+
2001 03 12 04 18.72 +21 09.7 5.237 0.189 6940+/8.27+ 2341+/ 39.0+
2001 03 22 04 24.87 +21 23.8 5.402 0.192 6938+/8.28+ 2137+/ 35.6+
2001 04 01 04 31.84 +21 38.7 5.558 0.193 6901+/8.25+ 1922+/ 32.0+
2001 04 11 04 39.50 +21 53.7 5.702 0.195 6827+/8.18+ 1699+/ 28.3+
2001 04 21 04 47.74 +22 08.3 5.833 0.196 6716+/8.06+ 1471+/ 24.5+
S/2000 J 5 q = 0.1118
Date TT R. A. (2000) Decl. Delta r_J dR.A. ("/m) dDecl. ("/')
2001 01 01 04 09.16 +19 21.1 4.204 0.149 6893+/8.12+ 1627-/ 27.1-
2001 01 11 04 06.44 +19 13.7 4.328 0.152 6913+/8.13+ 1749-/ 29.2-
2001 01 21 04 05.01 +19 10.6 4.471 0.155 6859+/8.07+ 1852-/ 30.9-
2001 01 31 04 04.93 +19 11.8 4.630 0.157 6740+/7.93+ 1941-/ 32.4-
2001 02 10 04 06.19 +19 17.2 4.799 0.160 6560+/7.72+ 2021-/ 33.7-
2001 02 20 04 08.72 +19 26.4 4.973 0.162 6327+/7.45+ 2096-/ 34.9-
2001 03 02 04 12.43 +19 38.7 5.148 0.164 6043+/7.13+ 2166-/ 36.1-
2001 03 12 04 17.20 +19 53.4 5.320 0.166 5715+/6.75+ 2234-/ 37.2-
2001 03 22 04 22.91 +20 09.8 5.485 0.167 5344+/6.33+ 2299-/ 38.3-
2001 04 01 04 29.44 +20 27.3 5.640 0.169 4934+/5.85+ 2360-/ 39.3-
2001 04 11 04 36.66 +20 45.1 5.783 0.170 4490+/5.33+ 2415-/ 40.3-
2001 04 21 04 44.46 +21 02.7 5.910 0.171 4013+/4.78+ 2462-/ 41.0-
S/2000 J 6 q = 0.1096
Date TT R. A. (2000) Decl. Delta r_J dR.A. ("/m) dDecl. ("/')
2001 01 01 04 05.63 +20 23.4 4.350 0.144 3866+/4.58+ 2105+/ 35.1+
2001 01 11 04 02.07 +20 16.7 4.466 0.139 3171+/3.76+ 2027+/ 33.8+
2001 01 21 03 59.84 +20 13.3 4.601 0.134 2447+/2.90+ 1908+/ 31.8+
2001 01 31 03 59.02 +20 13.5 4.749 0.130 1708+/2.02+ 1757+/ 29.3+
2001 02 10 03 59.61 +20 17.3 4.905 0.125 965+/1.14+ 1581+/ 26.4+
2001 02 20 04 01.54 +20 24.5 5.064 0.120 232+/0.28+ 1390+/ 23.2+
2001 03 02 04 04.73 +20 34.7 5.222 0.116 479-/0.57- 1192+/ 19.9+
2001 03 12 04 09.08 +20 47.2 5.373 0.112 1152-/1.37- 993+/ 16.5+
2001 03 22 04 14.48 +21 01.5 5.514 0.108 1772-/2.11- 800+/ 13.3+
2001 04 01 04 20.82 +21 16.9 5.643 0.105 2321-/2.77- 617+/ 10.3+
2001 04 11 04 28.00 +21 32.8 5.756 0.103 2781-/3.32- 448+/ 7.5+
2001 04 21 04 35.93 +21 48.7 5.852 0.101 3134-/3.75- 295+/ 4.9+
Brian G. Marsden (C) Copyright 2001 MPC M.P.E.C. 2001-A28
Read MPEC 2001-A27
Read MPEC 2001-A29
Our Web policy. Index to the CBAT/MPC/ICQ pages.